Weather History for CYBW - March, 2012

Change the Weather History Date:

Sunday, March 25, 2012

  Actual Average Record
Temperature  
Mean Temperature 28 °F -  
Max Temperature 38 °F 44 °F 62 °F (1999)
Min Temperature 19 °F 22 °F 9 °F (2013)
Degree Days  
Heating Degree Days 36    
Moisture  
Dew Point 24 °F    
Average Humidity 87    
Maximum Humidity 100    
Minimum Humidity 60    
Precipitation  
Precipitation 0.00 in - - ()
Sea Level Pressure  
Sea Level Pressure 30.00 in    
Wind  
Wind Speed 5 mph ()    
Max Wind Speed 14 mph    
Max Gust Speed -    
Visibility 9.3 miles    
Events Fog    
Averages and records for this station are not official NWS values.
T = Trace of Precipitation, MM = Missing Value Source: Averaged Metar Reports

Daily Weather History Graph

Daily Weather History Graph

Search for Another Location

Airport or City:

Trip Planner

Search our weather history database for the weather conditions in past years. The results will help you decide how hot, cold, wet, or windy it might be!

Date:

Astronomy

Mar. 25, 2012 Rise Set
Actual Time 7:27 AM MDT 7:59 PM MDT
Civil Twilight 6:54 AM MDT 8:33 PM MDT
Nautical Twilight 6:14 AM MDT 9:12 PM MDT
Astronomical Twilight 5:33 AM MDT 9:54 PM MDT
Moon 8:17 AM MDT (3/25) 11:48 PM MDT (3/25)
Length of Visible Light 13h 38m
Length of Day
12h 32m
Waxing Crescent, 9% of the Moon is Illuminated
Mar 25
Waxing Crescent
Mar 30
First Quarter
Apr 6
Full
Apr 13
Last Quarter
Apr 21
New

Hourly Weather History & Observations

Time (MDT) Temp. Windchill Dew Point Humidity Pressure Visibility Wind Dir Wind Speed Gust Speed Precip Events Conditions
5:00 AM 21.2 °F - 19.4 °F 93% 30.12 in 0.1 mi ESE 2.3 mph - N/A Fog Light Freezing Fog
6:00 AM 21 °F - 19 °F 91% 30.14 in 0 mi Calm Calm - - Fog Heavy Fog
6:00 AM 21.2 °F - 19.4 °F 93% 30.14 in 0.1 mi Calm Calm - N/A Fog Light Freezing Fog
7:00 AM 21.2 °F - 19.4 °F 93% 30.12 in 0.1 mi Calm Calm - N/A Fog Light Freezing Fog
8:00 AM 19.4 °F - 19.4 °F 100% 30.12 in 0.2 mi Calm Calm - N/A Fog Light Freezing Fog
9:00 AM 19.4 °F - 17.6 °F 93% 30.12 in 0.2 mi Calm Calm - N/A Fog Light Freezing Fog
10:00 AM 21.2 °F 14.9 °F 19.4 °F 93% 30.12 in 0.4 mi SE 4.6 mph - N/A Fog Light Freezing Fog
11:00 AM 23.0 °F 17.0 °F 21.2 °F 93% 30.10 in 0.4 mi South 4.6 mph - N/A Fog Light Freezing Fog
11:23 AM - - - N/A% - 2.5 mi South 5.8 mph - N/A   Overcast
11:46 AM - - - N/A% - 7.0 mi SSE 6.9 mph - N/A   Mostly Cloudy
12:00 PM 25 °F - 24 °F 97% 30.06 in 10 mi SSE 6.9 mph - -   Partly Cloudy
12:00 PM 24.8 °F 15.3 °F 24.8 °F 100% 30.06 in 10.0 mi South 9.2 mph - N/A   Mostly Cloudy
12:50 PM - - - N/A% - 15.0 mi SSE 8.1 mph - N/A   Overcast
1:00 PM 26.6 °F 16.8 °F 24.8 °F 93% 30.04 in 15.0 mi SSE 10.4 mph - N/A   Overcast
1:30 PM - - - N/A% - 15.0 mi SE 10.4 mph - N/A   Overcast
2:00 PM 28.4 °F 19.1 °F 24.8 °F 86% 30.02 in 15.0 mi SE 10.4 mph - N/A   Overcast
3:00 PM 32.0 °F 23.0 °F 26.6 °F 80% 29.97 in 15.0 mi SSE 11.5 mph - N/A   Overcast
4:00 PM 33.8 °F 25.3 °F 26.6 °F 75% 29.95 in 15.0 mi SSE 11.5 mph - N/A   Overcast
5:00 PM 37.4 °F 29.3 °F 28.4 °F 70% 29.92 in 15.0 mi SSE 12.7 mph - N/A   Mostly Cloudy
6:00 PM 38 °F - 29 °F 60% 29.88 in 15 mi SSE 10.4 mph - -   Overcast
6:00 PM 37.4 °F 30.3 °F 28.4 °F 70% 29.88 in 15.0 mi SSE 10.4 mph - N/A   Overcast
7:00 PM 35.6 °F 27.5 °F 28.4 °F 75% 29.88 in 15.0 mi SSE 11.5 mph - N/A   Overcast
8:00 PM 32.0 °F 22.1 °F 28.4 °F 87% 29.87 in 15.0 mi SE 13.8 mph - N/A   Mostly Cloudy
8:54 PM - - - N/A% - 15.0 mi SSE 6.9 mph - N/A   Overcast
9:00 PM 32.0 °F 24.8 °F 30.2 °F 93% 29.88 in 15.0 mi SSE 8.1 mph - N/A   Overcast
10:00 PM 32.0 °F 25.6 °F 28.4 °F 87% 29.71 in 15.0 mi SSE 6.9 mph - N/A   Overcast